Weather History for Niagara Falls, NY

Change the Weather History Date:

Tuesday, November 6, 2012

  Actual Average Record
Temperature  
Mean Temperature 34 °F -  
Max Temperature 39 °F 48 °F 68 °F (2005)
Min Temperature 30 °F 34 °F 23 °F (2000)
Degree Days  
Heating Degree Days 30    
Moisture  
Dew Point 22 °F    
Average Humidity 61    
Maximum Humidity 79    
Minimum Humidity 47    
Precipitation  
Precipitation 0.00 in - - ()
Sea Level Pressure  
Sea Level Pressure 30.17 in    
Wind  
Wind Speed 4 mph (ESE)    
Max Wind Speed 12 mph    
Max Gust Speed -    
Visibility 10 miles    
Events      
Averages and records for this station are not official NWS values.
T = Trace of Precipitation, MM = Missing Value Source: NWS Daily Summary

Daily Weather History Graph

Daily Weather History Graph

Search for Another Location

Airport:

Trip Planner

Search our weather history database for the weather conditions in past years. The results will help you decide how hot, cold, wet, or windy it might be!

Date:

Astronomy

Nov. 06, 2012 Rise Set
Actual Time 6:57 AM EST 5:00 PM EST
Civil Twilight 6:27 AM EST 5:30 PM EST
Nautical Twilight 5:53 AM EST 6:04 PM EST
Astronomical Twilight 5:20 AM EST 6:37 PM EST
Moon 11:40 PM EST (11/6) 12:47 PM EST (11/6)
Length of Visible Light 11h 03m
Length of Day
10h 03m
Waning Gibbous, 53% of the Moon is Illuminated
Nov 6
Waning Gibbous
Nov 6
Last Quarter
Nov 13
New
Nov 20
First Quarter
Nov 28
Full

Hourly Weather History & Observations

Time (EST) Temp. Windchill Dew Point Humidity Pressure Visibility Wind Dir Wind Speed Gust Speed Precip Events Conditions
12:53 AM 34.0 °F - 18.0 °F 52% 30.23 in 10.0 mi Calm Calm - N/A   Overcast
1:53 AM 34.0 °F - 17.1 °F 50% 30.23 in 10.0 mi Calm Calm - N/A   Overcast
2:53 AM 33.1 °F - 19.0 °F 56% 30.22 in 10.0 mi Calm Calm - N/A   Overcast
3:53 AM 32.0 °F - 19.4 °F 60% 30.17 in 10.0 mi Calm Calm - N/A   Overcast
4:53 AM 30.9 °F 25.2 °F 19.9 °F 64% 30.21 in 10.0 mi SSE 5.8 mph - N/A   Overcast
5:53 AM 30.9 °F 26.2 °F 21.0 °F 67% 30.21 in 10.0 mi South 4.6 mph - N/A   Overcast
6:53 AM 32.0 °F 27.5 °F 21.0 °F 64% 30.20 in 10.0 mi South 4.6 mph - N/A   Overcast
7:00 AM 30.2 °F 26.7 °F 21.2 °F 69% 30.16 in 10.0 mi SSE 3.5 mph - N/A   Mostly Cloudy
7:53 AM 32.0 °F 25.6 °F 19.9 °F 61% 30.21 in 10.0 mi SSE 6.9 mph - N/A   Mostly Cloudy
8:53 AM 33.1 °F 26.1 °F 19.9 °F 59% 30.22 in 10.0 mi SSE 8.1 mph - N/A   Mostly Cloudy
9:53 AM 36.0 °F 28.0 °F 19.9 °F 52% 30.23 in 10.0 mi SE 11.5 mph - N/A   Mostly Cloudy
10:53 AM 36.0 °F 31.1 °F 19.9 °F 52% 30.22 in 10.0 mi Variable 5.8 mph - N/A   Mostly Cloudy
11:53 AM 36.0 °F 29.6 °F 19.9 °F 52% 30.19 in 10.0 mi SE 8.1 mph - N/A   Mostly Cloudy
12:53 PM 39.9 °F 35.8 °F 21.9 °F 49% 30.16 in 10.0 mi SE 5.8 mph - N/A   Mostly Cloudy
1:53 PM 39.9 °F 36.7 °F 21.0 °F 47% 30.14 in 10.0 mi SSE 4.6 mph - N/A   Scattered Clouds
2:53 PM 39.9 °F 32.9 °F 24.1 °F 53% 30.12 in 10.0 mi NE 11.5 mph - N/A   Scattered Clouds
3:53 PM 39.0 °F 34.0 °F 23.0 °F 53% 30.12 in 10.0 mi East 6.9 mph - N/A   Scattered Clouds
4:53 PM 36.0 °F 28.0 °F 24.1 °F 62% 30.12 in 10.0 mi NE 11.5 mph - N/A   Partly Cloudy
5:53 PM 33.1 °F 26.9 °F 26.1 °F 75% 30.13 in 10.0 mi NE 6.9 mph - N/A   Partly Cloudy
6:53 PM 32.0 °F 25.6 °F 26.1 °F 79% 30.13 in 10.0 mi NE 6.9 mph - N/A   Partly Cloudy
7:53 PM 32.0 °F 25.6 °F 25.0 °F 75% 30.13 in 10.0 mi ENE 6.9 mph - N/A   Clear
8:53 PM 32.0 °F 23.6 °F 24.1 °F 73% 30.11 in 10.0 mi ENE 10.4 mph - N/A   Clear
9:53 PM 30.9 °F 24.3 °F 23.0 °F 72% 30.12 in 10.0 mi East 6.9 mph - N/A   Clear
10:53 PM 30.9 °F 24.3 °F 23.0 °F 72% 30.10 in 10.0 mi East 6.9 mph - N/A   Clear
11:53 PM 30.9 °F 23.5 °F 21.9 °F 69% 30.09 in 10.0 mi East 8.1 mph - N/A   Clear